Time,TemperatureF,DewpointF,PressureIn,WindDirection,WindDirectionDegrees,WindSpeedMPH,WindSpeedGustMPH,Humidity,HourlyPrecipIn,Conditions,Clouds,dailyrainin,SoftwareType,DateUTC
2013-03-24 00:00:00,34.4,25.1,29.71,North,1,2.8,8.1,68,0.00,,,0.00,WUHU216HW,2013-03-24 05:00:00,
2013-03-24 00:05:00,34.5,25.1,29.71,NE,46,3.3,6.3,68,0.00,,,0.00,WUHU216HW,2013-03-24 05:05:00,
2013-03-24 00:10:00,34.5,25.5,29.71,North,0,3.4,4.9,69,0.00,,,0.00,WUHU216HW,2013-03-24 05:10:00,
2013-03-24 00:15:00,34.5,25.5,29.71,NW,315,2.2,4.3,69,0.00,,,0.00,WUHU216HW,2013-03-24 05:15:00,
2013-03-24 00:20:00,34.4,25.4,29.71,NNE,23,3.1,4.3,69,0.00,,,0.00,WUHU216HW,2013-03-24 05:20:00,
2013-03-24 00:25:00,34.4,25.8,29.71,NNE,18,2.6,4.0,70,0.00,,,0.00,WUHU216HW,2013-03-24 05:25:00,
2013-03-24 00:30:00,34.5,26.1,29.71,NE,45,6.5,6.5,71,0.00,,,0.00,WUHU216HW,2013-03-24 05:30:00,
2013-03-24 00:35:00,34.1,26.4,29.71,NE,45,4.0,6.9,73,0.00,,,0.00,WUHU216HW,2013-03-24 05:35:00,
2013-03-24 00:40:00,33.6,27.2,29.71,WNW,293,6.9,7.4,77,0.00,,,0.00,WUHU216HW,2013-03-24 05:40:00,
2013-03-24 00:45:00,32.7,27.6,29.71,ENE,58,4.7,8.3,81,0.00,,,0.00,WUHU216HW,2013-03-24 05:45:00,
2013-03-24 00:51:00,32.1,27.9,29.71,NNE,29,3.6,8.3,84,0.00,,,0.00,WUHU216HW,2013-03-24 05:51:00,
2013-03-24 00:56:00,32.0,28.0,29.72,NNE,22,2.7,6.9,85,0.00,,,0.00,WUHU216HW,2013-03-24 05:56:00,
2013-03-24 01:01:00,31.7,28.0,29.72,ENE,68,4.3,5.4,86,0.00,,,0.00,WUHU216HW,2013-03-24 06:01:00,
2013-03-24 01:06:00,31.5,28.1,29.72,North,6,0.9,4.5,87,0.00,,,0.00,WUHU216HW,2013-03-24 06:06:00,
2013-03-24 01:11:00,31.5,28.1,29.71,North,3,1.9,4.3,87,0.00,,,0.00,WUHU216HW,2013-03-24 06:11:00,
2013-03-24 01:16:00,31.5,28.4,29.71,NE,45,6.0,6.0,88,0.00,,,0.00,WUHU216HW,2013-03-24 06:16:00,
2013-03-24 01:21:00,31.3,28.4,29.71,NNE,27,2.1,6.0,89,0.00,,,0.00,WUHU216HW,2013-03-24 06:21:00,
2013-03-24 01:26:00,31.3,28.4,29.71,NE,46,2.8,6.0,89,0.00,,,0.00,WUHU216HW,2013-03-24 06:26:00,
2013-03-24 01:31:00,31.1,28.3,29.71,NNE,13,2.8,5.4,89,0.00,,,0.00,WUHU216HW,2013-03-24 06:31:00,
2013-03-24 01:36:00,31.2,28.5,29.70,NNE,20,4.2,6.0,90,0.00,,,0.00,WUHU216HW,2013-03-24 06:36:00,
2013-03-24 01:41:00,31.1,28.2,29.71,ENE,68,3.8,6.0,89,0.00,,,0.00,WUHU216HW,2013-03-24 06:41:00,
2013-03-24 01:46:00,30.9,28.0,29.70,NNE,23,2.9,4.7,89,0.00,,,0.00,WUHU216HW,2013-03-24 06:46:00,
2013-03-24 01:51:00,30.9,28.0,29.70,NE,36,2.4,5.1,89,0.00,,,0.00,WUHU216HW,2013-03-24 06:51:00,
2013-03-24 01:56:00,30.9,28.0,29.70,NNW,338,2.2,5.1,89,0.00,,,0.00,WUHU216HW,2013-03-24 06:56:00,
2013-03-24 02:01:00,30.9,28.0,29.70,NE,39,2.2,4.7,89,0.00,,,0.00,WUHU216HW,2013-03-24 07:01:00,
2013-03-24 02:06:00,30.9,28.0,29.70,NE,34,1.6,4.7,89,0.00,,,0.00,WUHU216HW,2013-03-24 07:06:00,
2013-03-24 02:11:00,30.9,28.0,29.71,NNE,19,1.9,3.4,89,0.00,,,0.00,WUHU216HW,2013-03-24 07:11:00,
2013-03-24 02:16:00,30.9,28.0,29.70,NNE,23,2.5,3.4,89,0.00,,,0.00,WUHU216HW,2013-03-24 07:16:00,
2013-03-24 02:21:00,30.9,28.3,29.70,North,2,1.2,2.7,90,0.00,,,0.00,WUHU216HW,2013-03-24 07:21:00,
2013-03-24 02:26:00,30.9,28.3,29.70,North,5,1.9,4.0,90,0.00,,,0.00,WUHU216HW,2013-03-24 07:26:00,
2013-03-24 02:31:00,30.9,28.3,29.71,NNE,23,1.8,4.0,90,0.00,,,0.00,WUHU216HW,2013-03-24 07:31:00,
2013-03-24 02:36:00,30.9,28.3,29.70,North,9,1.0,3.4,90,0.00,,,0.00,WUHU216HW,2013-03-24 07:36:00,
2013-03-24 02:41:00,30.9,28.3,29.70,NNE,17,1.0,2.0,90,0.00,,,0.00,WUHU216HW,2013-03-24 07:41:00,
2013-03-24 02:46:00,30.9,28.3,29.70,NNE,23,0.9,2.0,90,0.00,,,0.00,WUHU216HW,2013-03-24 07:46:00,
2013-03-24 02:51:00,30.9,28.3,29.69,WNW,293,1.1,2.0,90,0.00,,,0.00,WUHU216HW,2013-03-24 07:51:00,
2013-03-24 02:56:00,30.9,28.3,29.69,ENE,69,0.4,2.0,90,0.00,,,0.00,WUHU216HW,2013-03-24 07:56:00,
2013-03-24 03:01:00,30.9,28.3,29.69,NE,45,3.1,3.4,90,0.00,,,0.00,WUHU216HW,2013-03-24 08:01:00,
2013-03-24 03:06:00,30.9,28.3,29.68,NE,34,0.6,3.4,90,0.00,,,0.00,WUHU216HW,2013-03-24 08:06:00,
2013-03-24 03:11:00,30.9,28.3,29.68,NNE,23,0.9,3.1,90,0.00,,,0.00,WUHU216HW,2013-03-24 08:11:00,
2013-03-24 03:16:00,30.9,28.3,29.68,North,11,0.9,2.5,90,0.00,,,0.00,WUHU216HW,2013-03-24 08:16:00,
2013-03-24 03:21:00,30.9,28.2,29.68,NNE,23,1.1,2.5,90,0.00,,,0.00,WUHU216HW,2013-03-24 08:21:00,
2013-03-24 03:26:00,30.8,28.2,29.68,NNE,23,1.4,2.5,90,0.00,,,0.00,WUHU216HW,2013-03-24 08:26:00,
2013-03-24 03:31:00,30.8,28.2,29.68,NNE,23,1.1,2.5,90,0.00,,,0.00,WUHU216HW,2013-03-24 08:31:00,
2013-03-24 03:36:00,30.8,28.2,29.67,NE,45,1.1,1.6,90,0.00,,,0.00,WUHU216HW,2013-03-24 08:36:00,
2013-03-24 03:41:00,30.8,28.2,29.66,North,356,0.8,1.8,90,0.00,,,0.00,WUHU216HW,2013-03-24 08:41:00,
2013-03-24 03:46:00,30.6,28.0,29.66,NNE,18,1.1,1.8,90,0.00,,,0.00,WUHU216HW,2013-03-24 08:46:00,
2013-03-24 03:51:00,30.6,28.0,29.66,NNE,23,0.7,1.8,90,0.00,,,0.00,WUHU216HW,2013-03-24 08:51:00,
2013-03-24 03:56:00,30.6,28.0,29.65,North,2,1.6,2.5,90,0.00,,,0.00,WUHU216HW,2013-03-24 08:56:00,
2013-03-24 04:01:00,30.6,28.0,29.65,NNE,16,0.6,3.1,90,0.00,,,0.00,WUHU216HW,2013-03-24 09:01:00,
2013-03-24 04:06:00,30.5,27.9,29.65,NNE,21,0.8,3.1,90,0.00,,,0.00,WUHU216HW,2013-03-24 09:06:00,
2013-03-24 04:12:00,30.5,27.9,29.65,NNE,25,1.2,2.5,90,0.00,,,0.00,WUHU216HW,2013-03-24 09:12:00,
2013-03-24 04:17:00,30.3,27.7,29.64,NNE,15,0.8,3.4,90,0.00,,,0.00,WUHU216HW,2013-03-24 09:17:00,
2013-03-24 04:22:00,30.3,28.0,29.63,North,8,1.7,3.4,91,0.00,,,0.00,WUHU216HW,2013-03-24 09:22:00,
2013-03-24 04:27:00,30.3,27.9,29.62,North,0,1.8,2.5,91,0.00,,,0.00,WUHU216HW,2013-03-24 09:27:00,
2013-03-24 04:32:00,30.3,27.9,29.62,NNE,22,1.1,2.7,91,0.00,,,0.00,WUHU216HW,2013-03-24 09:32:00,
2013-03-24 04:37:00,30.2,27.9,29.62,NNE,14,1.0,2.7,91,0.00,,,0.00,WUHU216HW,2013-03-24 09:37:00,
2013-03-24 04:42:00,30.2,27.9,29.62,NE,45,2.5,2.5,91,0.00,,,0.00,WUHU216HW,2013-03-24 09:42:00,
2013-03-24 04:47:00,30.2,27.6,29.63,North,0,2.0,2.5,90,0.00,,,0.00,WUHU216HW,2013-03-24 09:47:00,
2013-03-24 04:52:00,30.2,27.8,29.63,North,4,0.3,2.5,91,0.00,,,0.00,WUHU216HW,2013-03-24 09:52:00,
2013-03-24 04:57:00,30.2,27.6,29.63,ENE,68,0.9,2.0,90,0.00,,,0.00,WUHU216HW,2013-03-24 09:57:00,
2013-03-24 05:02:00,30.1,27.8,29.63,NNE,23,0.4,1.8,91,0.00,,,0.00,WUHU216HW,2013-03-24 10:02:00,
2013-03-24 05:07:00,30.1,27.8,29.64,NNE,19,0.4,1.8,91,0.00,,,0.00,WUHU216HW,2013-03-24 10:07:00,
2013-03-24 05:12:00,29.9,27.6,29.63,NNE,18,0.8,3.4,91,0.00,,,0.00,WUHU216HW,2013-03-24 10:12:00,
2013-03-24 05:17:00,29.9,27.5,29.63,North,8,0.7,3.4,91,0.00,,,0.00,WUHU216HW,2013-03-24 10:17:00,
2013-03-24 05:22:00,29.8,27.5,29.63,North,7,1.4,3.1,91,0.00,,,0.00,WUHU216HW,2013-03-24 10:22:00,
2013-03-24 05:27:00,29.7,27.4,29.63,NE,45,1.3,3.1,91,0.00,,,0.00,WUHU216HW,2013-03-24 10:27:00,
2013-03-24 05:32:00,29.7,27.4,29.62,North,9,1.1,1.6,91,0.00,,,0.00,WUHU216HW,2013-03-24 10:32:00,
2013-03-24 05:37:00,29.7,27.3,29.62,NNE,30,1.1,2.7,91,0.00,,,0.00,WUHU216HW,2013-03-24 10:37:00,
2013-03-24 05:42:00,29.6,27.3,29.63,North,0,0.4,2.7,91,0.00,,,0.00,WUHU216HW,2013-03-24 10:42:00,
2013-03-24 05:47:00,29.6,27.3,29.63,NNE,23,0.9,1.8,91,0.00,,,0.00,WUHU216HW,2013-03-24 10:47:00,
2013-03-24 05:52:00,29.6,27.3,29.63,North,9,0.5,1.8,91,0.00,,,0.00,WUHU216HW,2013-03-24 10:52:00,
2013-03-24 05:57:00,29.6,27.2,29.63,NNW,338,1.6,1.8,91,0.00,,,0.00,WUHU216HW,2013-03-24 10:57:00,
2013-03-24 06:02:00,29.5,27.2,29.63,NNE,13,0.9,1.8,91,0.00,,,0.00,WUHU216HW,2013-03-24 11:02:00,
2013-03-24 06:07:00,29.3,27.0,29.63,NNE,21,1.0,2.7,91,0.00,,,0.00,WUHU216HW,2013-03-24 11:07:00,
2013-03-24 06:12:00,29.5,27.1,29.63,NNE,23,1.3,2.7,91,0.00,,,0.00,WUHU216HW,2013-03-24 11:12:00,
2013-03-24 06:17:00,29.4,27.1,29.62,North,0,1.1,2.5,91,0.00,,,0.00,WUHU216HW,2013-03-24 11:17:00,
2013-03-24 06:22:00,29.2,26.9,29.62,WNW,293,0.4,2.5,91,0.00,,,0.00,WUHU216HW,2013-03-24 11:22:00,
2013-03-24 06:27:00,29.2,26.9,29.62,NW,315,0.7,1.8,91,0.00,,,0.00,WUHU216HW,2013-03-24 11:27:00,
2013-03-24 06:32:00,29.2,26.8,29.62,NNE,19,0.4,1.8,91,0.00,,,0.00,WUHU216HW,2013-03-24 11:32:00,
2013-03-24 06:37:00,29.3,27.0,29.62,NE,45,2.5,2.5,91,0.00,,,0.00,WUHU216HW,2013-03-24 11:37:00,
2013-03-24 06:42:00,29.3,27.0,29.61,North,7,0.9,3.4,91,0.00,,,0.00,WUHU216HW,2013-03-24 11:42:00,
2013-03-24 06:47:00,29.3,27.2,29.61,North,0,1.4,4.7,92,0.00,,,0.00,WUHU216HW,2013-03-24 11:47:00,
2013-03-24 06:52:00,29.2,27.2,29.61,NNE,23,1.8,4.7,92,0.00,,,0.00,WUHU216HW,2013-03-24 11:52:00,
2013-03-24 06:57:00,29.2,27.2,29.61,NNE,23,1.1,2.5,92,0.00,,,0.00,WUHU216HW,2013-03-24 11:57:00,
2013-03-24 07:02:00,29.2,27.1,29.61,NNW,348,0.7,2.5,92,0.00,,,0.00,WUHU216HW,2013-03-24 12:02:00,
2013-03-24 07:08:00,29.2,27.1,29.60,WNW,293,1.3,2.5,92,0.00,,,0.00,WUHU216HW,2013-03-24 12:08:00,
2013-03-24 07:13:00,29.2,27.1,29.60,NNE,20,1.9,5.6,92,0.00,,,0.00,WUHU216HW,2013-03-24 12:13:00,
2013-03-24 07:18:00,29.2,27.1,29.60,North,0,0.9,5.6,92,0.00,,,0.00,WUHU216HW,2013-03-24 12:18:00,
2013-03-24 07:23:00,29.2,27.1,29.60,ESE,113,4.0,4.0,92,0.00,,,0.00,WUHU216HW,2013-03-24 12:23:00,
2013-03-24 07:28:00,29.2,27.1,29.60,NE,45,2.2,4.0,92,0.00,,,0.00,WUHU216HW,2013-03-24 12:28:00,
2013-03-24 07:33:00,29.2,27.1,29.59,North,0,2.2,2.2,92,0.00,,,0.00,WUHU216HW,2013-03-24 12:33:00,
2013-03-24 07:38:00,29.2,27.1,29.59,NW,315,0.9,2.2,92,0.00,,,0.00,WUHU216HW,2013-03-24 12:38:00,
2013-03-24 07:43:00,29.2,27.1,29.59,NE,45,1.8,3.1,92,0.00,,,0.00,WUHU216HW,2013-03-24 12:43:00,
2013-03-24 07:48:00,29.2,26.9,29.59,NW,315,2.5,4.0,91,0.00,,,0.00,WUHU216HW,2013-03-24 12:48:00,
2013-03-24 07:53:00,29.3,27.0,29.58,North,6,0.9,4.5,91,0.00,,,0.00,WUHU216HW,2013-03-24 12:53:00,
2013-03-24 07:58:00,29.3,27.0,29.58,NNW,344,1.6,5.1,91,0.00,,,0.00,WUHU216HW,2013-03-24 12:58:00,
2013-03-24 08:03:00,29.5,27.2,29.58,North,0,4.7,5.1,91,0.00,,,0.00,WUHU216HW,2013-03-24 13:03:00,
2013-03-24 08:08:00,29.5,27.2,29.58,North,0,2.2,4.7,91,0.00,,,0.00,WUHU216HW,2013-03-24 13:08:00,
2013-03-24 08:13:00,29.5,27.2,29.57,WNW,293,1.1,4.7,91,0.00,,,0.00,WUHU216HW,2013-03-24 13:13:00,
2013-03-24 08:18:00,29.7,27.4,29.57,North,9,1.6,4.0,91,0.00,,,0.00,WUHU216HW,2013-03-24 13:18:00,
2013-03-24 08:23:00,29.7,27.4,29.57,North,0,2.2,4.0,91,0.00,,,0.00,WUHU216HW,2013-03-24 13:23:00,
2013-03-24 08:28:00,29.7,27.1,29.56,North,351,1.8,6.0,90,0.00,,,0.00,WUHU216HW,2013-03-24 13:28:00,
2013-03-24 08:33:00,29.9,27.3,29.55,NE,45,2.5,6.0,90,0.00,,,0.00,WUHU216HW,2013-03-24 13:33:00,
2013-03-24 08:38:00,29.9,27.3,29.55,North,355,1.2,4.9,90,0.00,,,0.00,WUHU216HW,2013-03-24 13:38:00,
2013-03-24 08:43:00,29.9,27.0,29.55,NNW,338,4.0,4.5,89,0.00,,,0.00,WUHU216HW,2013-03-24 13:43:00,
2013-03-24 08:48:00,29.9,27.0,29.55,NNW,338,2.2,4.7,89,0.00,,,0.00,WUHU216HW,2013-03-24 13:48:00,
2013-03-24 08:53:00,29.9,26.8,29.55,NNE,23,4.0,5.8,88,0.00,,,0.00,WUHU216HW,2013-03-24 13:53:00,
2013-03-24 08:58:00,29.9,27.0,29.55,North,8,2.5,5.8,89,0.00,,,0.00,WUHU216HW,2013-03-24 13:58:00,
2013-03-24 09:03:00,29.9,27.0,29.54,NNW,338,3.6,6.3,89,0.00,,,0.00,WUHU216HW,2013-03-24 14:03:00,
2013-03-24 09:08:00,30.1,27.2,29.54,NNE,27,2.5,6.3,89,0.00,,,0.00,WUHU216HW,2013-03-24 14:08:00,
2013-03-24 09:13:00,30.4,27.5,29.55,NNW,338,2.9,4.0,89,0.00,,,0.00,WUHU216HW,2013-03-24 14:13:00,
2013-03-24 09:18:00,30.4,27.0,29.55,North,350,2.5,5.1,87,0.00,,,0.00,WUHU216HW,2013-03-24 14:18:00,
2013-03-24 09:23:00,30.8,27.4,29.56,NE,45,2.0,5.1,87,0.00,,,0.00,WUHU216HW,2013-03-24 14:23:00,
2013-03-24 09:28:00,31.1,27.4,29.56,North,0,2.5,4.9,86,0.00,,,0.00,WUHU216HW,2013-03-24 14:28:00,
2013-03-24 09:33:00,31.3,27.6,29.55,NNW,328,0.9,4.3,86,0.00,,,0.00,WUHU216HW,2013-03-24 14:33:00,
2013-03-24 09:38:00,31.9,28.2,29.55,WNW,293,1.3,2.7,86,0.00,,,0.00,WUHU216HW,2013-03-24 14:38:00,
2013-03-24 09:43:00,31.9,27.9,29.55,North,7,1.3,4.0,85,0.00,,,0.00,WUHU216HW,2013-03-24 14:43:00,
2013-03-24 09:48:00,31.5,27.2,29.55,NNE,21,2.7,5.1,84,0.00,,,0.00,WUHU216HW,2013-03-24 14:48:00,
2013-03-24 09:53:00,31.3,27.3,29.55,North,0,2.2,5.1,85,0.00,,,0.00,WUHU216HW,2013-03-24 14:53:00,
2013-03-24 09:58:00,31.3,27.3,29.55,NNW,338,2.5,3.4,85,0.00,,,0.00,WUHU216HW,2013-03-24 14:58:00,
2013-03-24 10:03:00,31.3,27.3,29.55,North,0,1.2,5.4,85,0.00,,,0.00,WUHU216HW,2013-03-24 15:03:00,
2013-03-24 10:08:00,31.5,27.5,29.55,WNW,293,3.4,5.4,85,0.00,,,0.00,WUHU216HW,2013-03-24 15:08:00,
2013-03-24 10:13:00,31.3,27.0,29.55,North,0,2.6,5.4,84,0.00,,,0.00,WUHU216HW,2013-03-24 15:13:00,
2013-03-24 10:18:00,31.3,27.3,29.55,NE,45,2.7,5.4,85,0.00,,,0.00,WUHU216HW,2013-03-24 15:18:00,
2013-03-24 10:23:00,31.5,27.5,29.55,NE,45,1.8,3.1,85,0.00,,,0.00,WUHU216HW,2013-03-24 15:23:00,
2013-03-24 10:28:00,31.7,27.7,29.55,North,2,1.8,3.1,85,0.00,,,0.00,WUHU216HW,2013-03-24 15:28:00,
2013-03-24 10:33:00,31.7,27.7,29.55,North,0,2.0,3.6,85,0.00,,,0.00,WUHU216HW,2013-03-24 15:33:00,
2013-03-24 10:38:00,31.7,27.7,29.56,NNW,341,1.4,2.7,85,0.00,,,0.00,WUHU216HW,2013-03-24 15:38:00,
2013-03-24 10:43:00,31.7,28.0,29.56,North,1,0.9,3.4,86,0.00,,,0.00,WUHU216HW,2013-03-24 15:43:00,
2013-03-24 10:48:00,31.7,28.0,29.55,WNW,293,1.1,3.4,86,0.00,,,0.00,WUHU216HW,2013-03-24 15:48:00,
2013-03-24 10:53:00,31.9,28.2,29.55,NNE,23,2.7,2.7,86,0.00,,,0.00,WUHU216HW,2013-03-24 15:53:00,
2013-03-24 10:58:00,32.0,28.3,29.55,NNW,336,0.7,2.7,86,0.00,,,0.00,WUHU216HW,2013-03-24 15:58:00,
2013-03-24 11:03:00,32.0,28.3,29.55,North,0,2.7,2.7,86,0.00,,,0.00,WUHU216HW,2013-03-24 16:03:00,
2013-03-24 11:08:00,32.0,28.3,29.55,NNW,344,1.8,2.7,86,0.00,,,0.00,WUHU216HW,2013-03-24 16:08:00,
2013-03-24 11:13:00,32.0,28.3,29.55,NW,309,0.5,2.7,86,0.01,,,0.01,WUHU216HW,2013-03-24 16:13:00,
2013-03-24 11:18:00,32.0,28.3,29.55,NNE,29,0.9,2.2,86,0.01,,,0.01,WUHU216HW,2013-03-24 16:18:00,
2013-03-24 11:23:00,32.2,28.5,29.55,West,261,0.5,1.8,86,0.01,,,0.01,WUHU216HW,2013-03-24 16:23:00,
2013-03-24 11:28:00,32.2,28.5,29.55,North,7,1.1,1.8,86,0.01,,,0.01,WUHU216HW,2013-03-24 16:28:00,
2013-03-24 11:33:00,32.4,28.7,29.55,NNW,337,0.5,1.8,86,0.01,,,0.01,WUHU216HW,2013-03-24 16:33:00,
2013-03-24 11:38:00,32.4,28.7,29.55,North,0,1.1,1.8,86,0.01,,,0.01,WUHU216HW,2013-03-24 16:38:00,
2013-03-24 11:43:00,32.8,29.1,29.55,NNW,340,0.9,1.8,86,0.01,,,0.01,WUHU216HW,2013-03-24 16:43:00,
2013-03-24 11:48:00,32.8,29.1,29.54,North,0,0.9,1.8,86,0.01,,,0.01,WUHU216HW,2013-03-24 16:48:00,
2013-03-24 11:53:00,32.6,29.2,29.55,NW,309,0.5,1.3,87,0.01,,,0.01,WUHU216HW,2013-03-24 16:53:00,
2013-03-24 11:58:00,32.9,29.4,29.55,North,0,0.4,1.3,87,0.01,,,0.01,WUHU216HW,2013-03-24 16:58:00,
2013-03-24 12:03:00,33.3,29.8,29.54,West,270,1.8,1.8,87,0.01,,,0.01,WUHU216HW,2013-03-24 17:03:00,
2013-03-24 12:08:00,33.3,29.6,29.54,North,357,0.3,1.8,86,0.00,,,0.01,WUHU216HW,2013-03-24 17:08:00,
2013-03-24 12:13:00,33.3,29.6,29.53,North,354,0.5,1.8,86,0.00,,,0.01,WUHU216HW,2013-03-24 17:13:00,
2013-03-24 12:18:00,33.1,29.4,29.53,North,7,1.7,3.1,86,0.00,,,0.01,WUHU216HW,2013-03-24 17:18:00,
2013-03-24 12:23:00,33.1,29.4,29.53,North,0,0.9,3.1,86,0.00,,,0.01,WUHU216HW,2013-03-24 17:23:00,
2013-03-24 12:28:00,33.1,29.6,29.53,NW,304,1.1,2.2,87,0.00,,,0.01,WUHU216HW,2013-03-24 17:28:00,
2013-03-24 12:33:00,33.0,29.6,29.52,NNW,333,0.9,3.8,87,0.00,,,0.01,WUHU216HW,2013-03-24 17:33:00,
2013-03-24 12:38:00,33.1,29.7,29.52,NW,313,0.5,3.8,87,0.00,,,0.01,WUHU216HW,2013-03-24 17:38:00,
2013-03-24 12:43:00,33.3,29.8,29.52,WNW,293,1.1,1.6,87,0.00,,,0.01,WUHU216HW,2013-03-24 17:43:00,
2013-03-24 12:48:00,33.2,29.7,29.52,NW,315,1.3,3.6,87,0.00,,,0.01,WUHU216HW,2013-03-24 17:48:00,
2013-03-24 12:53:00,33.1,29.6,29.51,NNW,338,0.7,3.6,87,0.00,,,0.01,WUHU216HW,2013-03-24 17:53:00,
2013-03-24 12:58:00,33.2,29.7,29.51,NNW,330,1.0,2.2,87,0.00,,,0.01,WUHU216HW,2013-03-24 17:58:00,
2013-03-24 13:03:00,33.1,29.7,29.51,NNW,347,1.3,2.7,87,0.00,,,0.01,WUHU216HW,2013-03-24 18:03:00,
2013-03-24 13:08:00,33.1,29.7,29.51,NW,315,0.9,3.6,87,0.00,,,0.01,WUHU216HW,2013-03-24 18:08:00,
2013-03-24 13:13:00,33.1,29.6,29.51,NNW,337,0.8,3.6,87,0.00,,,0.01,WUHU216HW,2013-03-24 18:13:00,
2013-03-24 13:18:00,33.2,29.7,29.50,North,359,0.9,2.5,87,0.00,,,0.01,WUHU216HW,2013-03-24 18:18:00,
2013-03-24 13:23:00,33.3,29.8,29.50,North,352,1.6,3.4,87,0.01,,,0.02,WUHU216HW,2013-03-24 18:23:00,
2013-03-24 13:29:00,33.2,29.8,29.50,NW,315,2.5,3.4,87,0.01,,,0.02,WUHU216HW,2013-03-24 18:29:00,
2013-03-24 13:34:00,33.1,29.7,29.50,NW,308,0.8,3.6,87,0.01,,,0.02,WUHU216HW,2013-03-24 18:34:00,
2013-03-24 13:39:00,33.5,30.0,29.50,NNW,345,0.9,3.6,87,0.01,,,0.02,WUHU216HW,2013-03-24 18:39:00,
2013-03-24 13:44:00,33.4,29.7,29.50,WNW,293,2.0,3.4,86,0.01,,,0.02,WUHU216HW,2013-03-24 18:44:00,
2013-03-24 13:49:00,33.3,29.6,29.50,NW,315,2.7,4.5,86,0.01,,,0.02,WUHU216HW,2013-03-24 18:49:00,
2013-03-24 13:54:00,33.1,29.6,29.50,ENE,68,1.8,4.5,87,0.02,,,0.03,WUHU216HW,2013-03-24 18:54:00,
2013-03-24 13:59:00,33.3,29.6,29.49,NNW,338,2.2,3.1,86,0.02,,,0.03,WUHU216HW,2013-03-24 18:59:00,
2013-03-24 14:04:00,33.1,29.4,29.49,ENE,68,8.1,8.1,86,0.02,,,0.03,WUHU216HW,2013-03-24 19:04:00,
2013-03-24 14:09:00,32.5,28.8,29.49,North,0,2.2,8.1,86,0.02,,,0.03,WUHU216HW,2013-03-24 19:09:00,
2013-03-24 14:14:00,32.4,29.0,29.50,NW,314,1.4,4.9,87,0.02,,,0.03,WUHU216HW,2013-03-24 19:14:00,
2013-03-24 14:19:00,32.2,28.7,29.49,NNW,343,1.7,5.4,87,0.02,,,0.03,WUHU216HW,2013-03-24 19:19:00,
2013-03-24 14:24:00,32.3,28.9,29.49,NNW,338,2.7,5.4,87,0.02,,,0.04,WUHU216HW,2013-03-24 19:24:00,
2013-03-24 14:29:00,32.1,28.6,29.49,North,350,1.6,6.0,87,0.02,,,0.04,WUHU216HW,2013-03-24 19:29:00,
2013-03-24 14:34:00,31.9,28.5,29.48,North,351,3.3,6.5,87,0.02,,,0.04,WUHU216HW,2013-03-24 19:34:00,
2013-03-24 14:39:00,32.0,28.6,29.48,East,90,1.3,6.5,87,0.02,,,0.04,WUHU216HW,2013-03-24 19:39:00,
2013-03-24 14:44:00,32.0,28.5,29.48,NNE,23,5.8,5.8,87,0.02,,,0.04,WUHU216HW,2013-03-24 19:44:00,
2013-03-24 14:49:00,31.9,28.5,29.48,NNW,338,1.5,5.8,87,0.03,,,0.05,WUHU216HW,2013-03-24 19:49:00,
2013-03-24 14:54:00,31.9,28.7,29.48,North,0,3.4,5.8,88,0.02,,,0.05,WUHU216HW,2013-03-24 19:54:00,
2013-03-24 14:59:00,31.9,28.7,29.48,NNE,23,2.5,4.3,88,0.02,,,0.05,WUHU216HW,2013-03-24 19:59:00,
2013-03-24 15:04:00,31.8,28.6,29.48,North,0,2.5,5.8,88,0.02,,,0.05,WUHU216HW,2013-03-24 20:04:00,
2013-03-24 15:09:00,32.2,29.3,29.48,NW,323,2.2,5.8,89,0.03,,,0.07,WUHU216HW,2013-03-24 20:09:00,
2013-03-24 15:14:00,32.0,28.9,29.48,North,0,2.5,3.1,88,0.03,,,0.07,WUHU216HW,2013-03-24 20:14:00,
2013-03-24 15:19:00,32.0,28.8,29.48,NE,45,3.4,3.4,88,0.04,,,0.07,WUHU216HW,2013-03-24 20:19:00,
2013-03-24 15:24:00,32.2,29.3,29.48,North,0,1.8,3.4,89,0.03,,,0.07,WUHU216HW,2013-03-24 20:24:00,
2013-03-24 15:29:00,32.0,28.8,29.48,NNW,338,5.6,5.6,88,0.03,,,0.07,WUHU216HW,2013-03-24 20:29:00,
2013-03-24 15:34:00,31.7,28.5,29.48,North,10,2.7,5.6,88,0.03,,,0.07,WUHU216HW,2013-03-24 20:34:00,
2013-03-24 15:39:00,31.7,28.8,29.48,WSW,248,4.0,5.6,89,0.04,,,0.09,WUHU216HW,2013-03-24 20:39:00,
2013-03-24 15:44:00,31.7,28.8,29.48,NNW,338,2.5,4.3,89,0.03,,,0.09,WUHU216HW,2013-03-24 20:44:00,
2013-03-24 15:49:00,31.7,28.6,29.48,NNW,345,2.3,4.0,88,0.04,,,0.09,WUHU216HW,2013-03-24 20:49:00,
2013-03-24 15:54:00,31.7,28.6,29.48,NNW,334,1.9,3.8,88,0.04,,,0.09,WUHU216HW,2013-03-24 20:54:00,
2013-03-24 15:59:00,31.9,28.7,29.48,NW,322,1.8,2.7,88,0.04,,,0.09,WUHU216HW,2013-03-24 20:59:00,
2013-03-24 16:04:00,31.9,28.7,29.48,WSW,248,2.0,4.3,88,0.03,,,0.09,WUHU216HW,2013-03-24 21:04:00,
2013-03-24 16:09:00,31.6,28.4,29.48,NW,319,2.4,4.3,88,0.04,,,0.11,WUHU216HW,2013-03-24 21:09:00,
2013-03-24 16:14:00,31.6,28.5,29.48,NNW,343,1.2,3.8,88,0.04,,,0.11,WUHU216HW,2013-03-24 21:14:00,
2013-03-24 16:19:00,31.7,28.2,29.48,North,0,4.0,4.0,87,0.03,,,0.11,WUHU216HW,2013-03-24 21:19:00,
2013-03-24 16:24:00,31.7,28.3,29.48,NNW,338,2.5,4.0,87,0.03,,,0.11,WUHU216HW,2013-03-24 21:24:00,
2013-03-24 16:29:00,31.7,28.6,29.48,NNW,338,2.7,6.3,88,0.04,,,0.11,WUHU216HW,2013-03-24 21:29:00,
2013-03-24 16:34:00,31.8,28.6,29.49,NW,323,1.3,6.3,88,0.04,,,0.11,WUHU216HW,2013-03-24 21:34:00,
2013-03-24 16:39:00,31.6,28.2,29.49,NW,319,1.5,4.5,87,0.03,,,0.11,WUHU216HW,2013-03-24 21:39:00,
2013-03-24 16:44:00,31.5,28.1,29.49,North,5,3.4,4.3,87,0.03,,,0.11,WUHU216HW,2013-03-24 21:44:00,
2013-03-24 16:49:00,31.5,28.4,29.49,WNW,293,1.3,4.3,88,0.02,,,0.11,WUHU216HW,2013-03-24 21:49:00,
2013-03-24 16:54:00,31.4,28.2,29.49,WNW,302,1.7,5.4,88,0.02,,,0.11,WUHU216HW,2013-03-24 21:54:00,
2013-03-24 16:59:00,31.4,28.2,29.50,North,0,2.7,5.4,88,0.02,,,0.11,WUHU216HW,2013-03-24 21:59:00,
2013-03-24 17:04:00,31.4,28.3,29.50,NNW,330,1.0,2.7,88,0.01,,,0.11,WUHU216HW,2013-03-24 22:04:00,
2013-03-24 17:09:00,31.5,28.6,29.50,North,0,3.1,3.1,89,0.01,,,0.11,WUHU216HW,2013-03-24 22:09:00,
2013-03-24 17:14:00,31.5,28.7,29.50,NNW,338,1.8,3.4,89,0.02,,,0.12,WUHU216HW,2013-03-24 22:14:00,
2013-03-24 17:19:00,31.4,28.5,29.50,NW,313,1.1,3.4,89,0.02,,,0.12,WUHU216HW,2013-03-24 22:19:00,
2013-03-24 17:24:00,31.3,28.4,29.50,NNW,338,2.5,2.5,89,0.01,,,0.12,WUHU216HW,2013-03-24 22:24:00,
2013-03-24 17:29:00,31.4,28.5,29.50,NW,315,1.1,2.9,89,0.01,,,0.12,WUHU216HW,2013-03-24 22:29:00,
2013-03-24 17:34:00,31.2,28.3,29.50,North,0,2.5,3.1,89,0.01,,,0.12,WUHU216HW,2013-03-24 22:34:00,
2013-03-24 17:39:00,31.3,28.7,29.51,West,270,0.9,3.1,90,0.01,,,0.12,WUHU216HW,2013-03-24 22:39:00,
2013-03-24 17:44:00,31.4,28.8,29.51,WSW,248,1.3,2.5,90,0.01,,,0.12,WUHU216HW,2013-03-24 22:44:00,
2013-03-24 17:49:00,31.5,28.9,29.51,NNW,328,1.4,3.4,90,0.01,,,0.12,WUHU216HW,2013-03-24 22:49:00,
2013-03-24 17:54:00,31.2,28.6,29.52,NNW,338,2.0,3.6,90,0.01,,,0.12,WUHU216HW,2013-03-24 22:54:00,
2013-03-24 17:59:00,31.1,28.5,29.52,NW,306,1.2,3.6,90,0.01,,,0.12,WUHU216HW,2013-03-24 22:59:00,
2013-03-24 18:04:00,31.2,28.6,29.52,NW,313,1.5,3.6,90,0.01,,,0.12,WUHU216HW,2013-03-24 23:04:00,
2013-03-24 18:09:00,30.9,28.3,29.52,WNW,293,1.8,3.1,90,0.00,,,0.12,WUHU216HW,2013-03-24 23:09:00,
2013-03-24 18:14:00,31.0,28.4,29.52,NNW,338,2.5,3.4,90,0.00,,,0.12,WUHU216HW,2013-03-24 23:14:00,
2013-03-24 18:19:00,31.1,28.5,29.52,NNW,336,2.0,3.4,90,0.00,,,0.12,WUHU216HW,2013-03-24 23:19:00,
2013-03-24 18:24:00,31.2,28.5,29.53,NW,320,0.7,2.5,90,0.00,,,0.12,WUHU216HW,2013-03-24 23:24:00,
2013-03-24 18:29:00,31.2,28.6,29.53,NW,315,1.3,1.8,90,0.00,,,0.12,WUHU216HW,2013-03-24 23:29:00,
2013-03-24 18:34:00,31.1,28.8,29.53,NNW,338,0.7,2.2,91,0.00,,,0.12,WUHU216HW,2013-03-24 23:34:00,
2013-03-24 18:39:00,31.1,28.8,29.53,NW,315,1.1,2.2,91,0.00,,,0.12,WUHU216HW,2013-03-24 23:39:00,
2013-03-24 18:44:00,31.0,28.4,29.53,North,0,1.8,4.7,90,0.00,,,0.12,WUHU216HW,2013-03-24 23:44:00,
2013-03-24 18:49:00,30.8,28.5,29.53,West,281,0.8,4.7,91,0.00,,,0.12,WUHU216HW,2013-03-24 23:49:00,
2013-03-24 18:54:00,30.6,28.0,29.53,West,270,2.0,2.5,90,0.00,,,0.12,WUHU216HW,2013-03-24 23:54:00,
2013-03-24 18:59:00,30.6,28.0,29.53,WNW,287,1.0,2.5,90,0.00,,,0.12,WUHU216HW,2013-03-24 23:59:00,
2013-03-24 19:04:00,30.6,28.0,29.54,NNW,338,1.1,2.7,90,0.00,,,0.12,WUHU216HW,2013-03-25 00:04:00,
2013-03-24 19:09:00,30.6,28.0,29.54,NW,316,1.0,2.7,90,0.00,,,0.12,WUHU216HW,2013-03-25 00:09:00,
2013-03-24 19:14:00,30.4,27.8,29.54,NNW,335,2.1,4.5,90,0.00,,,0.12,WUHU216HW,2013-03-25 00:14:00,
2013-03-24 19:19:00,30.4,27.8,29.54,NW,325,0.8,4.5,90,0.00,,,0.12,WUHU216HW,2013-03-25 00:19:00,
2013-03-24 19:24:00,30.2,27.6,29.54,West,269,0.4,1.3,90,0.00,,,0.12,WUHU216HW,2013-03-25 00:24:00,
2013-03-24 19:29:00,30.2,27.6,29.54,NW,313,1.0,2.7,90,0.00,,,0.12,WUHU216HW,2013-03-25 00:29:00,
2013-03-24 19:34:00,30.2,27.6,29.54,WSW,253,1.3,3.6,90,0.00,,,0.12,WUHU216HW,2013-03-25 00:34:00,
2013-03-24 19:39:00,30.1,27.8,29.55,NNW,338,1.1,3.6,91,0.00,,,0.12,WUHU216HW,2013-03-25 00:39:00,
2013-03-24 19:44:00,30.1,27.8,29.55,NW,315,0.9,2.0,91,0.00,,,0.12,WUHU216HW,2013-03-25 00:44:00,
2013-03-24 19:49:00,30.1,27.8,29.55,NW,315,1.8,2.5,91,0.00,,,0.12,WUHU216HW,2013-03-25 00:49:00,
2013-03-24 19:54:00,30.1,27.8,29.55,WNW,284,0.6,2.5,91,0.00,,,0.12,WUHU216HW,2013-03-25 00:54:00,
2013-03-24 19:59:00,30.1,27.8,29.55,NNW,338,1.8,1.8,91,0.00,,,0.12,WUHU216HW,2013-03-25 00:59:00,
2013-03-24 20:04:00,29.9,27.6,29.55,NW,315,1.3,1.8,91,0.00,,,0.12,WUHU216HW,2013-03-25 01:04:00,
2013-03-24 20:09:00,29.9,27.8,29.55,NNW,327,1.0,2.0,92,0.01,,,0.14,WUHU216HW,2013-03-25 01:09:00,
2013-03-24 20:14:00,29.9,27.8,29.55,NW,315,1.3,2.0,92,0.01,,,0.14,WUHU216HW,2013-03-25 01:14:00,
2013-03-24 20:19:00,29.9,27.8,29.55,NNW,338,1.3,2.2,92,0.01,,,0.14,WUHU216HW,2013-03-25 01:19:00,
2013-03-24 20:24:00,29.9,27.8,29.55,NW,315,1.6,4.0,92,0.01,,,0.14,WUHU216HW,2013-03-25 01:24:00,
2013-03-24 20:29:00,29.9,27.8,29.55,WNW,298,1.1,4.0,92,0.01,,,0.14,WUHU216HW,2013-03-25 01:29:00,
2013-03-24 20:34:00,29.9,27.8,29.55,NW,310,1.2,2.7,92,0.01,,,0.14,WUHU216HW,2013-03-25 01:34:00,
2013-03-24 20:39:00,29.9,27.8,29.55,NW,315,2.0,2.7,92,0.01,,,0.14,WUHU216HW,2013-03-25 01:39:00,
2013-03-24 20:44:00,29.7,27.6,29.55,NNW,332,1.4,2.5,92,0.01,,,0.14,WUHU216HW,2013-03-25 01:44:00,
2013-03-24 20:49:00,29.7,27.6,29.56,NNW,338,2.5,2.5,92,0.01,,,0.14,WUHU216HW,2013-03-25 01:49:00,
2013-03-24 20:54:00,29.9,27.8,29.56,NNW,338,0.7,2.5,92,0.01,,,0.14,WUHU216HW,2013-03-25 01:54:00,
2013-03-24 20:59:00,29.9,27.8,29.56,NW,315,1.8,2.5,92,0.01,,,0.14,WUHU216HW,2013-03-25 01:59:00,
2013-03-24 21:04:00,29.9,27.8,29.56,NW,315,1.1,2.2,92,0.01,,,0.14,WUHU216HW,2013-03-25 02:04:00,
2013-03-24 21:09:00,29.9,27.8,29.56,NW,306,1.6,3.6,92,0.00,,,0.14,WUHU216HW,2013-03-25 02:09:00,
2013-03-24 21:14:00,29.9,27.8,29.56,NNW,332,1.7,3.6,92,0.00,,,0.14,WUHU216HW,2013-03-25 02:14:00,
2013-03-24 21:19:00,29.9,27.8,29.57,NNW,334,1.7,3.4,92,0.00,,,0.14,WUHU216HW,2013-03-25 02:19:00,
2013-03-24 21:24:00,29.7,27.6,29.56,NNW,339,1.2,3.1,92,0.00,,,0.14,WUHU216HW,2013-03-25 02:24:00,
2013-03-24 21:29:00,29.7,27.6,29.57,NNW,338,1.3,2.7,92,0.00,,,0.14,WUHU216HW,2013-03-25 02:29:00,
2013-03-24 21:34:00,29.7,27.6,29.57,NNW,338,0.7,3.1,92,0.00,,,0.14,WUHU216HW,2013-03-25 02:34:00,
2013-03-24 21:39:00,29.5,27.4,29.57,NNE,23,2.2,4.7,92,0.00,,,0.14,WUHU216HW,2013-03-25 02:39:00,
2013-03-24 21:44:00,29.5,27.4,29.57,WNW,293,1.6,4.7,92,0.00,,,0.14,WUHU216HW,2013-03-25 02:44:00,
2013-03-24 21:49:00,29.5,27.4,29.57,NNW,338,2.9,3.6,92,0.00,,,0.14,WUHU216HW,2013-03-25 02:49:00,
2013-03-24 21:54:00,29.5,27.4,29.57,NNW,335,1.5,3.1,92,0.00,,,0.14,WUHU216HW,2013-03-25 02:54:00,
2013-03-24 21:59:00,29.5,27.4,29.57,NW,315,1.3,2.9,92,0.00,,,0.14,WUHU216HW,2013-03-25 02:59:00,
2013-03-24 22:04:00,29.5,27.5,29.57,NNW,338,0.9,2.5,92,0.00,,,0.14,WUHU216HW,2013-03-25 03:04:00,
2013-03-24 22:09:00,29.6,27.5,29.57,NW,323,1.1,2.9,92,0.00,,,0.14,WUHU216HW,2013-03-25 03:09:00,
2013-03-24 22:14:00,29.6,27.5,29.57,North,355,1.4,3.4,92,0.00,,,0.14,WUHU216HW,2013-03-25 03:14:00,
2013-03-24 22:19:00,29.6,27.6,29.56,NW,324,0.9,3.4,92,0.00,,,0.14,WUHU216HW,2013-03-25 03:19:00,
2013-03-24 22:24:00,29.6,27.6,29.57,NW,315,0.8,2.2,92,0.00,,,0.14,WUHU216HW,2013-03-25 03:24:00,
2013-03-24 22:29:00,29.7,27.9,29.57,NNW,338,1.8,2.9,93,0.00,,,0.14,WUHU216HW,2013-03-25 03:29:00,
2013-03-24 22:34:00,29.7,27.9,29.57,NW,307,1.0,3.1,93,0.00,,,0.14,WUHU216HW,2013-03-25 03:34:00,
2013-03-24 22:39:00,29.7,27.9,29.56,WNW,295,0.7,3.1,93,0.00,,,0.14,WUHU216HW,2013-03-25 03:39:00,
2013-03-24 22:44:00,29.8,28.0,29.57,WNW,295,1.0,1.8,93,0.00,,,0.14,WUHU216HW,2013-03-25 03:44:00,
2013-03-24 22:49:00,29.8,28.0,29.56,NW,309,1.2,2.2,93,0.00,,,0.14,WUHU216HW,2013-03-25 03:49:00,
2013-03-24 22:54:00,29.8,28.0,29.57,NNW,338,1.1,2.2,93,0.00,,,0.14,WUHU216HW,2013-03-25 03:54:00,
2013-03-24 22:59:00,29.8,28.0,29.57,NW,310,0.7,2.7,93,0.00,,,0.14,WUHU216HW,2013-03-25 03:59:00,
2013-03-24 23:00:00,29.8,28.0,29.57,NW,309,0.7,2.7,93,0.00,,,0.14,WUHU216HW,2013-03-25 04:00:00,
2013-03-24 23:05:00,29.9,28.1,29.56,NW,316,0.8,3.4,93,0.00,,,0.14,WUHU216HW,2013-03-25 04:05:00,
2013-03-24 23:10:00,29.9,28.1,29.56,NW,315,1.8,3.4,93,0.00,,,0.14,WUHU216HW,2013-03-25 04:10:00,
2013-03-24 23:15:00,29.7,27.9,29.56,NW,315,1.6,1.8,93,0.00,,,0.14,WUHU216HW,2013-03-25 04:15:00,
2013-03-24 23:20:00,29.8,28.0,29.56,WNW,293,1.8,2.0,93,0.00,,,0.14,WUHU216HW,2013-03-25 04:20:00,
2013-03-24 23:25:00,30.0,28.2,29.56,NW,324,1.0,2.0,93,0.00,,,0.14,WUHU216HW,2013-03-25 04:25:00,
2013-03-24 23:30:00,29.8,28.0,29.56,WNW,293,0.9,2.0,93,0.00,,,0.14,WUHU216HW,2013-03-25 04:30:00,
2013-03-24 23:35:00,29.8,28.0,29.56,WNW,293,0.7,2.2,93,0.00,,,0.14,WUHU216HW,2013-03-25 04:35:00,
2013-03-24 23:40:00,29.9,28.1,29.56,NW,315,0.6,2.2,93,0.00,,,0.14,WUHU216HW,2013-03-25 04:40:00,
2013-03-24 23:45:00,29.9,28.1,29.56,WNW,297,0.8,2.5,93,0.00,,,0.14,WUHU216HW,2013-03-25 04:45:00,
2013-03-24 23:50:00,29.9,28.1,29.56,NW,317,1.2,2.5,93,0.00,,,0.14,WUHU216HW,2013-03-25 04:50:00,
2013-03-24 23:55:00,29.9,28.1,29.56,NNW,328,0.9,1.8,93,0.00,,,0.14,WUHU216HW,2013-03-25 04:55:00,